Flag for Japan Weather past 2 weeks in Yokosuka, Japan

Now
68 °F

Partly sunny.


Feels Like: 68 °F
Forecast: 54 / 63 °F
Wind: 14 mph from South

Location: Tokyo International Airport


UV Index: 0 (Low)

Visibility: N/A


Pressure: 29.86 "Hg

Humidity: 56%

Dew point: 52 °F

Location of YokosukaLocation

Historic Weather in Yokosuka

°F

Yokosuka temperature yesterday

Maximum temperature yesterday: 73 °F (at 1:30 PM)
Minimum temperature yesterday: 55 °F (at 1:30 AM)
Average temperature yesterday: 63 °F

Past Weeks' High & Low Weather Summary

 TemperatureHumidityPressure
High73 °F (Apr 16, 1:30 PM)100% (Apr 3, 3:00 PM)30.15 "Hg (Apr 3, 3:00 PM)
Low41 °F (Apr 7, 4:30 AM)16% (Apr 11, 11:48 AM)29.18 "Hg (Apr 4, 3:00 PM)
Average57 °F57%29.88 "Hg
* Reported Apr 2 2:00 PM — Apr 17 2:30 PM, Yokosuka, Weather by CustomWeather, © 2014

Note: Actual official high and low records may vary slightly from our data, if they occured in-between our weather recording intervals... More about our weather records

Advertising

Historic Weather Conditions — Data for Previous 24 hours

 ConditionsComfort  
Time TempWeatherWind HumidityBarometerVisibility
2:30 PM
Apr 17
68 °FPartly sunny.10 mph56%29.86 "HgN/A
2:00 PM66 °FScattered clouds.8 mph64%29.86 "HgN/A
1:30 PM66 °FPassing clouds.8 mph64%29.86 "HgN/A
1:00 PM66 °FPassing clouds.5 mph52%29.89 "HgN/A
12:30 PM66 °FPassing clouds.5 mph49%29.89 "HgN/A
12:00 PM64 °FPassing clouds.2 mph49%29.92 "HgN/A
11:30 AM64 °FSunny.6 mph52%29.92 "Hg10 mi
11:00 AM64 °FSunny.5 mph52%29.95 "Hg10 mi
10:30 AM63 °FSunny.7 mph52%29.95 "Hg10 mi
10:00 AM63 °FSunny.7 mph56%29.95 "Hg10 mi
9:30 AM61 °FSunny.5 mph55%29.98 "Hg10 mi
9:00 AM59 °FSunny.7 mph55%29.98 "Hg10 mi
8:30 AM59 °FSunny.7 mph59%29.98 "Hg10 mi
8:00 AM57 °FSunny.6 mph63%29.98 "Hg10 mi
7:30 AM57 °FSunny.7 mph63%29.98 "Hg10 mi
7:00 AM55 °FSunny.7 mph72%29.98 "Hg10 mi
6:30 AM55 °FSunny.8 mph72%29.95 "Hg10 mi
6:00 AM55 °FSunny.7 mph72%29.95 "Hg10 mi
5:30 AM55 °FSunny.9 mph72%29.95 "Hg10 mi
5:00 AM55 °FClear.10 mph72%29.92 "Hg10 mi
4:30 AM55 °FClear.10 mph67%29.92 "Hg10 mi
4:00 AM57 °FClear.14 mph55%29.92 "Hg10 mi
3:30 AM59 °FClear.14 mph51%29.89 "Hg10 mi
3:00 AM59 °FClear.16 mph48%29.89 "Hg10 mi
2:30 AM59 °FClear.12 mph77%29.89 "Hg5 mi
2:00 AM59 °FClear.13 mph82%29.86 "Hg4 mi
1:30 AM59 °FFog.13 mph77%29.86 "Hg3 mi
1:00 AM59 °FFog.6 mph82%29.86 "Hg3 mi
12:30 AM59 °FClear.3 mph82%29.86 "Hg4 mi
12:00 AM59 °FClear.6 mph82%29.86 "Hg4 mi
11:30 PM
Apr 16
61 °FClear.8 mph83%29.86 "Hg4 mi
11:00 PM61 °FClear.7 mph83%29.86 "Hg6 mi
10:00 PM61 °FClear.7 mph83%29.86 "Hg5 mi
9:30 PM59 °FClear.5 mph82%29.86 "Hg6 mi
9:00 PM61 °FClear.6 mph63%29.86 "Hg6 mi
8:30 PM63 °FPassing clouds.5 mph59%29.86 "HgN/A
8:00 PM64 °FPassing clouds.6 mph56%29.83 "HgN/A
7:30 PM64 °FPassing clouds.6 mph52%29.83 "HgN/A
7:00 PM64 °FPassing clouds.7 mph56%29.83 "HgN/A
6:30 PM63 °FClear.9 mph64%29.83 "Hg5 mi
6:00 PM64 °FClear.10 mph56%29.83 "Hg5 mi
5:30 PM64 °FClear.15 mph60%29.80 "Hg5 mi
5:00 PM64 °FClear.15 mph60%29.83 "Hg6 mi
4:30 PM66 °FSunny.16 mph52%29.83 "Hg10 mi
4:00 PM68 °FSunny.20 mph40%29.83 "Hg10 mi
3:30 PM70 °FSunny.17 mph38%29.83 "Hg10 mi
3:00 PM70 °FSunny.21 mph43%29.83 "Hg10 mi
Weather by CustomWeather, © 2014

See weather overview